Regional Weather Roundup
Issued by NWS Charleston, WV

Home | Current Version | Previous Version | Text Only | Print | Product List | Glossary On
Versions: 1 2 3 4 5 6 7 8 9 10 11 12 13 14 15 16 17 18 19 20 21 22 23 24 25 26 27 28 29 30 31 32 33 34 35 36 37 38 39 40 41 42 43 44 45 46 47 48 49 50
810
ASUS41 KRLX 101810
RWRRLX
West Virginia Regional Weather Roundup
National Weather Service Charleston WV
100 PM EST WED FEB 10 2016

Note: "fair" indicates few or no clouds below 12,000 feet with no
significant weather and/or obstructions to visibility.

WVZ003-101900-
Northern Panhandle of West Virginia

CITY           SKY/WX    TMP DP  RH WIND       PRES   REMARKS
WHEELING       LGT SNOW  19  12  74 SW16G24   29.84S VSB 1   WCI   4
$$

WVZ009-101900-
Northwest West Virginia

CITY           SKY/WX    TMP DP  RH WIND       PRES   REMARKS
PARKERSBURG    LGT SNOW  19  13  77 W10G20    29.95F WCI   7
$$

WVZ006-101900-
Western West Virginia

CITY           SKY/WX    TMP DP  RH WIND       PRES   REMARKS
HUNTINGTON     FLURRIES  21   6  52 W10G21    30.00S WCI  10
$$

WVZ015-101900-
West Central West Virginia

CITY           SKY/WX    TMP DP  RH WIND       PRES   REMARKS
CHARLESTON     LGT SNOW  20  11  68 W16G23    29.95F WCI   6
$$

WVZ022-031-101900-
North Central West Virginia

CITY           SKY/WX    TMP DP  RH WIND       PRES   REMARKS
CLARKSBURG     FLURRIES  19  10  68 W14G24    29.88F WCI   6
MORGANTOWN     CLOUDY    19   8  62 VRB7      29.86S WCI  10
$$

WVZ025-035-042-045-101900-
Southern West Virginia

CITY           SKY/WX    TMP DP  RH WIND       PRES   REMARKS
BECKLEY        LGT SNOW  15   6  67 W16       29.82F WCI  -1
LOGAN          LGT SNOW  18  10  73 W6        29.92F WCI   9
BLUEFIELD      FLURRIES  14   4  64 W9G21     29.80F WCI   2
LEWISBURG      CLOUDY    22   9  58 W9G17     29.80F
$$

WVZ047-101900-
Northern Mountains of West Virginia

CITY           SKY/WX    TMP DP  RH WIND       PRES   REMARKS
ELKINS         FLURRIES  16   5  62 W8G18     29.82F WCI   5
$$

WVZ052-101900-
Eastern Panhandle of West Virginia

CITY           SKY/WX    TMP DP  RH WIND       PRES   REMARKS
MARTINSBURG    PTSUNNY   32  12  43 W22G30    29.78F
PETERSBURG       N/A     27   8  44 CALM      29.82F
$$




USA.gov is the U.S. government's official web portal to all federal, state and local government web resources and services.